Orbital Elements at Epoch 2459000.5 (2020-May-31.0) TDB
Reference: JPL 22 (heliocentric ecliptic J2000)
Element | Value | Uncertainty (1-sigma) | Units |
e | .1694582477459204 | 5.104e-08 | |
a | 2.296151895968734 | 8.4123e-09 | au |
q | 1.907050019119399 | 1.2075e-07 | au |
i | 8.178235041944097 | 4.0352e-06 | deg |
node | 62.13788874464717 | 4.1693e-05 | deg |
peri | 328.0531711049931 | 4.4665e-05 | deg |
M | 37.65704502371686 | 1.6148e-05 | deg |
tp | 2458867.563853593310 (2020-Jan-19.06385359) | 5.6771e-05 | TDB |
period | 1270.864792398536 3.48 | 6.984e-06 1.912e-08 | d yr |
n | .2832716762265188 | 1.5567e-09 | deg/d |
Q | 2.685253772818069 | 9.8378e-09 | au |
|
| | Orbit Determination Parameters
Additional Information
|